CSC8087 ZUCK-ZSAM

Flight info

Callsign CSC8087
Flight time 2h 8m
Altitude 35100
Route VILUS1Z VILUS W180 LIDMA W182 LAGEX G586 SJG B330 POU G471 SHL W22 GUBLO R200 BEBEM A470 TEBON TEBON6W
Aircraft A320/M-SDE3FGHIRWY/LB1

Departure

Time 2026-04-28 09:03
Airport Chongqing Jiangbei International Airport (ZUCK)

Arrival

Time 2026-04-28 11:12
Airport Xiamen Gaoqi International Airport (ZSAM)
Time Latitude Longitude Altitude Speed Heading
2026-04-28 08:45 29.72823 106.65828 1343 ft 0 kts 44°
2026-04-28 08:53 29.72809 106.65813 1345 ft 4 kts 45°
2026-04-28 08:53 29.72794 106.65792 1346 ft 4 kts 77°
2026-04-28 08:54 29.72798 106.65766 1347 ft 4 kts 128°
2026-04-28 08:54 29.72805 106.65755 1346 ft 1 kts 131°
2026-04-28 08:56 29.72799 106.65764 1347 ft 7 kts 131°
2026-04-28 08:56 29.72736 106.65821 1340 ft 12 kts 148°
2026-04-28 08:57 29.72674 106.65865 1343 ft 9 kts 149°
2026-04-28 08:57 29.72626 106.65897 1339 ft 8 kts 149°
2026-04-28 08:57 29.72575 106.65930 1337 ft 7 kts 164°
2026-04-28 08:57 29.72538 106.65928 1337 ft 5 kts 182°
2026-04-28 08:58 29.72506 106.65969 1336 ft 9 kts 102°
2026-04-28 08:58 29.72482 106.66053 1339 ft 17 kts 108°
2026-04-28 08:58 29.72438 106.66166 1333 ft 13 kts 152°
2026-04-28 08:58 29.72386 106.66226 1332 ft 10 kts 113°
2026-04-28 08:59 29.72334 106.66254 1332 ft 12 kts 189°
2026-04-28 08:59 29.72261 106.66227 1332 ft 9 kts 198°
2026-04-28 08:59 29.72222 106.66213 1337 ft 4 kts 197°
2026-04-28 08:59 29.72169 106.66194 1336 ft 10 kts 198°
2026-04-28 09:00 29.72119 106.66175 1333 ft 5 kts 198°
2026-04-28 09:00 29.72094 106.66166 1334 ft 8 kts 197°
2026-04-28 09:00 29.71994 106.66129 1334 ft 15 kts 198°
2026-04-28 09:00 29.71907 106.66100 1335 ft 15 kts 197°
2026-04-28 09:01 29.71773 106.66053 1336 ft 21 kts 197°
2026-04-28 09:01 29.71656 106.66015 1336 ft 14 kts 182°
2026-04-28 09:01 29.71609 106.66072 1336 ft 9 kts 108°
2026-04-28 09:01 29.71594 106.66126 1336 ft 6 kts 108°
2026-04-28 09:02 29.71593 106.66191 1336 ft 7 kts 56°
2026-04-28 09:02 29.71625 106.66209 1336 ft 5 kts 14°
2026-04-28 09:02 29.71768 106.66258 1335 ft 52 kts 16°
2026-04-28 09:02 29.72313 106.66444 1329 ft 111 kts 17°
2026-04-28 09:03 29.73207 106.66754 1324 ft 156 kts 17°
2026-04-28 09:03 29.74332 106.67129 1679 ft 171 kts 13°
2026-04-28 09:03 29.75489 106.67514 2436 ft 172 kts 14°
2026-04-28 09:03 29.76665 106.67945 2924 ft 186 kts 21°
2026-04-28 09:04 29.77873 106.68712 3151 ft 211 kts 29°
2026-04-28 09:04 29.79186 106.69663 3476 ft 235 kts 31°
2026-04-28 09:04 29.80618 106.70728 3979 ft 252 kts 32°
2026-04-28 09:04 29.82108 106.71832 4819 ft 256 kts 33°
2026-04-28 09:05 29.83619 106.72938 5596 ft 261 kts 32°
2026-04-28 09:05 29.85083 106.74226 6261 ft 271 kts 48°
2026-04-28 09:05 29.85981 106.76162 6923 ft 281 kts 76°
2026-04-28 09:05 29.86010 106.78419 7639 ft 287 kts 103°
2026-04-28 09:06 29.85451 106.80642 8395 ft 291 kts 107°
2026-04-28 09:06 29.84726 106.82829 9120 ft 295 kts 121°
2026-04-28 09:06 29.83379 106.84607 9830 ft 298 kts 145°
2026-04-28 09:06 29.81507 106.85629 10460 ft 302 kts 168°
2026-04-28 09:07 29.79351 106.85941 10643 ft 324 kts 177°
2026-04-28 09:07 29.77025 106.86131 10775 ft 347 kts 178°
2026-04-28 09:07 29.74542 106.86311 10900 ft 368 kts 178°
2026-04-28 09:07 29.71936 106.86500 11236 ft 381 kts 177°
2026-04-28 09:08 29.69272 106.86703 11811 ft 385 kts 177°
2026-04-28 09:08 29.66586 106.86918 12425 ft 388 kts 177°
2026-04-28 09:08 29.63890 106.87141 13034 ft 391 kts 177°
2026-04-28 09:08 29.61164 106.87369 13627 ft 393 kts 177°
2026-04-28 09:09 29.58426 106.87595 14138 ft 396 kts 177°
2026-04-28 09:09 29.55682 106.87825 14760 ft 395 kts 177°
2026-04-28 09:09 29.52944 106.88054 15314 ft 396 kts 177°
2026-04-28 09:09 29.50190 106.88282 15822 ft 398 kts 178°
2026-04-28 09:10 29.47421 106.88509 16312 ft 400 kts 178°
2026-04-28 09:10 29.44639 106.88738 16818 ft 401 kts 178°
2026-04-28 09:10 29.41847 106.88966 17318 ft 403 kts 178°
2026-04-28 09:10 29.39044 106.89196 17791 ft 405 kts 178°
2026-04-28 09:11 29.36262 106.89422 18252 ft 406 kts 178°
2026-04-28 09:11 29.33437 106.89651 18640 ft 409 kts 178°
2026-04-28 09:11 29.30592 106.89882 19001 ft 411 kts 178°
2026-04-28 09:11 29.27726 106.90118 19343 ft 414 kts 178°
2026-04-28 09:12 29.24842 106.90356 19698 ft 417 kts 178°
2026-04-28 09:12 29.21939 106.90596 20056 ft 419 kts 178°
2026-04-28 09:12 29.19019 106.90836 20421 ft 422 kts 178°
2026-04-28 09:12 29.16082 106.91074 20759 ft 425 kts 178°
2026-04-28 09:13 29.13127 106.91315 21109 ft 427 kts 178°
2026-04-28 09:13 29.10153 106.91558 21419 ft 430 kts 178°
2026-04-28 09:13 29.07161 106.91803 21755 ft 432 kts 178°
2026-04-28 09:13 29.04150 106.92050 22090 ft 434 kts 178°
2026-04-28 09:14 29.01131 106.92298 22390 ft 437 kts 179°
2026-04-28 09:14 28.98089 106.92547 22686 ft 439 kts 179°
2026-04-28 09:14 28.95034 106.92797 23011 ft 441 kts 179°
2026-04-28 09:14 28.91967 106.93047 23308 ft 443 kts 179°
2026-04-28 09:15 28.88885 106.93296 23603 ft 445 kts 179°
2026-04-28 09:15 28.85784 106.93544 23864 ft 447 kts 179°
2026-04-28 09:15 28.82674 106.93792 24129 ft 449 kts 179°
2026-04-28 09:15 28.79601 106.94039 24365 ft 450 kts 179°
2026-04-28 09:16 28.76468 106.94297 24596 ft 451 kts 179°
2026-04-28 09:16 28.73326 106.94560 24844 ft 452 kts 179°
2026-04-28 09:16 28.70194 106.94821 25112 ft 452 kts 179°
2026-04-28 09:16 28.67048 106.95079 25347 ft 454 kts 179°
2026-04-28 09:17 28.63895 106.95254 25590 ft 454 kts 182°
2026-04-28 09:17 28.60732 106.95284 25801 ft 455 kts 184°
2026-04-28 09:17 28.57565 106.95213 25998 ft 456 kts 185°
2026-04-28 09:17 28.54394 106.95100 26216 ft 457 kts 185°
2026-04-28 09:18 28.51209 106.94990 26418 ft 458 kts 185°
2026-04-28 09:18 28.48013 106.94904 26646 ft 460 kts 184°
2026-04-28 09:18 28.44820 106.94846 26946 ft 460 kts 184°
2026-04-28 09:18 28.41622 106.94810 27229 ft 460 kts 184°
2026-04-28 09:19 28.38422 106.94787 27527 ft 459 kts 184°
2026-04-28 09:19 28.35228 106.94764 27855 ft 459 kts 184°
2026-04-28 09:19 28.32037 106.94738 28180 ft 458 kts 184°
2026-04-28 09:19 28.28854 106.94706 28505 ft 457 kts 184°
2026-04-28 09:20 28.25670 106.94670 28786 ft 457 kts 184°
2026-04-28 09:20 28.22493 106.94660 29113 ft 457 kts 183°
2026-04-28 09:20 28.19313 106.94756 29460 ft 457 kts 181°
2026-04-28 09:20 28.16176 106.94934 29757 ft 458 kts 180°
2026-04-28 09:21 28.12988 106.95156 30014 ft 459 kts 180°
2026-04-28 09:21 28.09802 106.95388 30241 ft 459 kts 180°
2026-04-28 09:21 28.06617 106.95609 30430 ft 459 kts 181°
2026-04-28 09:21 28.03432 106.95806 30593 ft 458 kts 181°
2026-04-28 09:22 28.00251 106.95980 30839 ft 457 kts 181°
2026-04-28 09:22 27.97072 106.96141 31132 ft 456 kts 181°
2026-04-28 09:22 27.93905 106.96295 31411 ft 455 kts 182°
2026-04-28 09:22 27.90742 106.96451 31592 ft 456 kts 181°
2026-04-28 09:23 27.87568 106.96611 31817 ft 456 kts 182°
2026-04-28 09:23 27.84394 106.96775 32013 ft 457 kts 181°
2026-04-28 09:23 27.81219 106.96941 32260 ft 456 kts 181°
2026-04-28 09:23 27.78052 106.97108 32524 ft 456 kts 181°
2026-04-28 09:24 27.74883 106.97276 32803 ft 455 kts 181°
2026-04-28 09:24 27.71758 106.97441 33089 ft 455 kts 181°
2026-04-28 09:24 27.68603 106.97607 33347 ft 454 kts 181°
2026-04-28 09:24 27.65444 106.97777 33617 ft 454 kts 181°
2026-04-28 09:25 27.62294 106.97946 33899 ft 453 kts 182°
2026-04-28 09:25 27.59147 106.98115 34146 ft 453 kts 181°
2026-04-28 09:25 27.55991 106.98282 34329 ft 454 kts 181°
2026-04-28 09:25 27.52840 106.98450 34550 ft 454 kts 181°
2026-04-28 09:26 27.49685 106.98616 34784 ft 453 kts 182°
2026-04-28 09:26 27.46539 106.98781 35014 ft 453 kts 182°
2026-04-28 09:26 27.43389 106.98946 35118 ft 454 kts 182°
2026-04-28 09:27 27.33887 106.99446 35147 ft 456 kts 182°
2026-04-28 09:27 27.27543 106.99794 35147 ft 457 kts 182°
2026-04-28 09:28 27.21194 107.00146 35146 ft 456 kts 182°
2026-04-28 09:28 27.14894 107.00487 35145 ft 456 kts 182°
2026-04-28 09:29 27.08541 107.00824 35147 ft 456 kts 182°
2026-04-28 09:29 27.02190 107.01210 35145 ft 459 kts 176°
2026-04-28 09:30 26.99068 107.02068 35136 ft 467 kts 162°
2026-04-28 09:30 26.96169 107.03769 35135 ft 475 kts 148°
2026-04-28 09:30 26.93675 107.06227 35120 ft 482 kts 134°
2026-04-28 09:30 26.91743 107.09316 35122 ft 487 kts 120°
2026-04-28 09:31 26.90493 107.12857 35122 ft 491 kts 108°
2026-04-28 09:31 26.89553 107.16541 35117 ft 492 kts 108°
2026-04-28 09:31 26.87680 107.23918 35108 ft 493 kts 108°
2026-04-28 09:32 26.85810 107.31316 35111 ft 494 kts 108°
2026-04-28 09:32 26.83931 107.38725 35101 ft 494 kts 108°
2026-04-28 09:33 26.82037 107.46117 35109 ft 494 kts 109°
2026-04-28 09:33 26.80157 107.53456 35111 ft 493 kts 109°
2026-04-28 09:34 26.78267 107.60831 35104 ft 493 kts 109°
2026-04-28 09:34 26.76372 107.68210 35097 ft 493 kts 109°
2026-04-28 09:35 26.74453 107.75583 35091 ft 493 kts 110°
2026-04-28 09:35 26.72528 107.82932 35096 ft 491 kts 110°
2026-04-28 09:36 26.70629 107.90214 35094 ft 491 kts 110°
2026-04-28 09:36 26.68729 107.97535 35094 ft 490 kts 110°
2026-04-28 09:37 26.66819 108.04844 35088 ft 490 kts 110°
2026-04-28 09:37 26.64893 108.12143 35090 ft 489 kts 110°
2026-04-28 09:38 26.62974 108.19437 35078 ft 489 kts 110°
2026-04-28 09:38 26.61055 108.26734 35072 ft 489 kts 110°
2026-04-28 09:39 26.59132 108.34027 35077 ft 490 kts 110°
2026-04-28 09:39 26.57255 108.41336 35066 ft 490 kts 108°
2026-04-28 09:40 26.55558 108.48714 35071 ft 490 kts 108°
2026-04-28 09:40 26.54196 108.54848 35081 ft 489 kts 109°
2026-04-28 09:41 26.52516 108.62195 35065 ft 488 kts 109°
2026-04-28 09:41 26.50797 108.69525 35052 ft 487 kts 109°
2026-04-28 09:42 26.49071 108.76840 35044 ft 488 kts 109°
2026-04-28 09:42 26.47351 108.84155 35051 ft 487 kts 110°
2026-04-28 09:43 26.45636 108.91450 35049 ft 485 kts 110°
2026-04-28 09:43 26.43688 108.98614 35042 ft 478 kts 120°
2026-04-28 09:44 26.40186 109.04735 35037 ft 462 kts 137°
2026-04-28 09:44 26.35444 109.09427 35031 ft 454 kts 147°
2026-04-28 09:45 26.30510 109.13845 35020 ft 455 kts 146°
2026-04-28 09:45 26.25583 109.18274 35019 ft 455 kts 146°
2026-04-28 09:46 26.20680 109.22665 35021 ft 455 kts 146°
2026-04-28 09:46 26.15747 109.27082 35014 ft 455 kts 146°
2026-04-28 09:47 26.10815 109.31495 34986 ft 455 kts 146°
2026-04-28 09:47 26.05871 109.35899 34988 ft 456 kts 146°
2026-04-28 09:48 26.00919 109.40308 34966 ft 455 kts 146°
2026-04-28 09:48 25.95971 109.44720 34974 ft 456 kts 146°
2026-04-28 09:49 25.91024 109.49137 34973 ft 456 kts 146°
2026-04-28 09:49 25.86068 109.53545 34971 ft 456 kts 146°
2026-04-28 09:50 25.81105 109.57945 34970 ft 456 kts 146°
2026-04-28 09:50 25.76249 109.62488 34963 ft 459 kts 141°
2026-04-28 09:51 25.71632 109.67389 34961 ft 459 kts 141°
2026-04-28 09:51 25.67012 109.72279 34962 ft 459 kts 141°
2026-04-28 09:52 25.62391 109.77164 34962 ft 459 kts 141°
2026-04-28 09:52 25.57769 109.82041 34935 ft 459 kts 141°
2026-04-28 09:53 25.53177 109.86879 34939 ft 459 kts 141°
2026-04-28 09:53 25.48555 109.91747 34940 ft 459 kts 141°
2026-04-28 09:54 25.43926 109.96618 34901 ft 460 kts 141°
2026-04-28 09:54 25.39287 110.01490 34898 ft 461 kts 141°
2026-04-28 09:55 25.34631 110.06379 34902 ft 461 kts 141°
2026-04-28 09:55 25.29977 110.11264 34875 ft 462 kts 141°
2026-04-28 09:56 25.25311 110.16149 34872 ft 462 kts 141°
2026-04-28 09:56 25.20639 110.21031 34880 ft 462 kts 141°
2026-04-28 09:57 25.15981 110.25933 34886 ft 463 kts 141°
2026-04-28 09:57 25.11346 110.30856 34861 ft 463 kts 140°
2026-04-28 09:58 25.06696 110.35793 34866 ft 464 kts 141°
2026-04-28 09:58 25.02021 110.40728 34868 ft 465 kts 141°
2026-04-28 09:59 24.97343 110.45670 34872 ft 466 kts 141°
2026-04-28 09:59 24.92662 110.50627 34863 ft 467 kts 141°
2026-04-28 10:00 24.87962 110.55596 34863 ft 469 kts 141°
2026-04-28 10:00 24.83239 110.60575 34874 ft 471 kts 141°
2026-04-28 10:01 24.78508 110.65561 34877 ft 471 kts 141°
2026-04-28 10:01 24.73775 110.70549 34885 ft 471 kts 141°
2026-04-28 10:02 24.69048 110.75524 34902 ft 471 kts 141°
2026-04-28 10:02 24.64320 110.80503 34905 ft 471 kts 141°
2026-04-28 10:03 24.59639 110.85552 34896 ft 471 kts 140°
2026-04-28 10:03 24.54973 110.90614 34899 ft 472 kts 140°
2026-04-28 10:04 24.50316 110.95635 34900 ft 472 kts 140°
2026-04-28 10:04 24.45615 111.00680 34905 ft 472 kts 140°
2026-04-28 10:05 24.40910 111.05717 34894 ft 472 kts 140°
2026-04-28 10:05 24.36212 111.10755 34898 ft 473 kts 140°
2026-04-28 10:06 24.31506 111.15789 34901 ft 474 kts 140°
2026-04-28 10:06 24.26784 111.20848 34896 ft 475 kts 140°
2026-04-28 10:07 24.21995 111.25851 34894 ft 474 kts 145°
2026-04-28 10:07 24.16445 111.29580 34903 ft 466 kts 158°
2026-04-28 10:08 24.10659 111.32798 34905 ft 467 kts 157°
2026-04-28 10:08 24.04871 111.36049 34896 ft 468 kts 157°
2026-04-28 10:09 23.99070 111.39298 34913 ft 469 kts 157°
2026-04-28 10:09 23.93262 111.42547 34916 ft 469 kts 157°
2026-04-28 10:10 23.87453 111.45781 34918 ft 469 kts 157°
2026-04-28 10:10 23.81635 111.49008 34918 ft 469 kts 157°
2026-04-28 10:11 23.75815 111.52240 34923 ft 469 kts 157°
2026-04-28 10:11 23.69993 111.55472 34930 ft 469 kts 157°
2026-04-28 10:12 23.64173 111.58715 34935 ft 469 kts 157°
2026-04-28 10:12 23.58391 111.61924 34935 ft 469 kts 157°
2026-04-28 10:13 23.52570 111.65141 34937 ft 469 kts 157°
2026-04-28 10:13 23.46744 111.68357 34938 ft 469 kts 158°
2026-04-28 10:14 23.40911 111.71577 34920 ft 470 kts 158°
2026-04-28 10:14 23.35070 111.74793 34918 ft 470 kts 158°
2026-04-28 10:15 23.29227 111.78023 34927 ft 471 kts 158°
2026-04-28 10:15 23.23814 111.82117 34923 ft 484 kts 138°
2026-04-28 10:16 23.21662 111.84963 34917 ft 491 kts 127°
2026-04-28 10:16 23.20013 111.88231 34914 ft 497 kts 116°
2026-04-28 10:16 23.18935 111.91809 34914 ft 501 kts 105°
2026-04-28 10:16 23.18168 111.95517 34921 ft 502 kts 105°
2026-04-28 10:17 23.16620 112.02926 34922 ft 503 kts 105°
2026-04-28 10:17 23.15062 112.10354 34929 ft 504 kts 105°
2026-04-28 10:18 23.13522 112.17738 34928 ft 505 kts 105°
2026-04-28 10:18 23.11956 112.25191 34931 ft 506 kts 105°
2026-04-28 10:19 23.10379 112.32650 34937 ft 507 kts 105°
2026-04-28 10:19 23.08802 112.40115 34941 ft 507 kts 105°
2026-04-28 10:20 23.07240 112.47589 34948 ft 507 kts 102°
2026-04-28 10:20 23.06567 112.55225 34956 ft 508 kts 95°
2026-04-28 10:21 23.06055 112.62883 34957 ft 508 kts 95°
2026-04-28 10:21 23.05534 112.70491 34958 ft 508 kts 95°
2026-04-28 10:22 23.05005 112.78137 34958 ft 508 kts 95°
2026-04-28 10:22 23.04484 112.85784 34965 ft 508 kts 95°
2026-04-28 10:23 23.03965 112.93432 34962 ft 507 kts 95°
2026-04-28 10:23 23.02864 113.00949 34959 ft 504 kts 110°
2026-04-28 10:24 23.00660 113.08174 34956 ft 504 kts 110°
2026-04-28 10:24 22.98431 113.15387 34955 ft 505 kts 110°
2026-04-28 10:25 22.96193 113.22609 34953 ft 505 kts 110°
2026-04-28 10:25 22.93965 113.29837 34957 ft 505 kts 110°
2026-04-28 10:26 22.92110 113.35846 34958 ft 505 kts 110°
2026-04-28 10:26 22.89869 113.43079 34961 ft 506 kts 110°
2026-04-28 10:27 22.87626 113.50305 34960 ft 506 kts 110°
2026-04-28 10:27 22.85376 113.57535 34944 ft 506 kts 110°
2026-04-28 10:28 22.83121 113.64772 34946 ft 507 kts 110°
2026-04-28 10:29 22.79727 113.75649 34956 ft 508 kts 110°
2026-04-28 10:29 22.77455 113.82900 34979 ft 508 kts 110°
2026-04-28 10:30 22.75183 113.90148 34978 ft 508 kts 110°
2026-04-28 10:30 22.72908 113.97383 34981 ft 508 kts 110°
2026-04-28 10:31 22.71487 114.04863 34968 ft 508 kts 92°
2026-04-28 10:31 22.71942 114.12474 34969 ft 507 kts 82°
2026-04-28 10:32 22.72737 114.20001 34977 ft 507 kts 82°
2026-04-28 10:32 22.73512 114.27593 34977 ft 506 kts 83°
2026-04-28 10:33 22.74287 114.35176 34988 ft 506 kts 83°
2026-04-28 10:33 22.75056 114.42750 35004 ft 505 kts 82°
2026-04-28 10:34 22.75830 114.50302 35001 ft 504 kts 82°
2026-04-28 10:34 22.76606 114.57852 34990 ft 503 kts 82°
2026-04-28 10:35 22.77382 114.65381 34993 ft 503 kts 82°
2026-04-28 10:35 22.78149 114.72914 34998 ft 503 kts 82°
2026-04-28 10:36 22.78925 114.80433 34997 ft 502 kts 82°
2026-04-28 10:36 22.79732 114.87958 34996 ft 502 kts 82°
2026-04-28 10:37 22.80537 114.95484 34996 ft 502 kts 82°
2026-04-28 10:37 22.81327 115.02957 34992 ft 502 kts 83°
2026-04-28 10:38 22.82112 115.10488 34982 ft 503 kts 83°
2026-04-28 10:38 22.82899 115.18027 34986 ft 504 kts 83°
2026-04-28 10:39 22.83693 115.25579 34990 ft 504 kts 83°
2026-04-28 10:39 22.84481 115.33144 34989 ft 505 kts 83°
2026-04-28 10:40 22.85253 115.40706 34995 ft 505 kts 83°
2026-04-28 10:40 22.86018 115.48273 35014 ft 505 kts 83°
2026-04-28 10:41 22.86794 115.55834 35018 ft 504 kts 83°
2026-04-28 10:41 22.87564 115.63385 35016 ft 504 kts 83°
2026-04-28 10:42 22.88327 115.70956 35011 ft 504 kts 83°
2026-04-28 10:42 22.89094 115.78509 35016 ft 504 kts 83°
2026-04-28 10:43 22.89849 115.86079 35015 ft 505 kts 83°
2026-04-28 10:43 22.90608 115.93644 35018 ft 504 kts 83°
2026-04-28 10:44 22.91400 116.01166 35002 ft 505 kts 82°
2026-04-28 10:44 22.92198 116.08737 35001 ft 506 kts 83°
2026-04-28 10:45 22.92985 116.16319 35010 ft 506 kts 83°
2026-04-28 10:45 22.93765 116.23961 35011 ft 506 kts 83°
2026-04-28 10:46 22.95096 116.31379 35007 ft 503 kts 68°
2026-04-28 10:46 22.96527 116.34825 35005 ft 500 kts 57°
2026-04-28 10:46 22.98442 116.37947 35005 ft 495 kts 47°
2026-04-28 10:47 23.03406 116.42989 35008 ft 487 kts 33°
2026-04-28 10:47 23.08811 116.47452 35007 ft 488 kts 33°
2026-04-28 10:48 23.14213 116.51925 35010 ft 488 kts 33°
2026-04-28 10:48 23.19622 116.56403 34739 ft 488 kts 33°
2026-04-28 10:48 23.22326 116.58640 34505 ft 489 kts 33°
2026-04-28 10:49 23.25036 116.60887 34279 ft 490 kts 34°
2026-04-28 10:49 23.27745 116.63138 34059 ft 491 kts 34°
2026-04-28 10:49 23.30459 116.65394 33828 ft 491 kts 34°
2026-04-28 10:49 23.33177 116.67651 33564 ft 492 kts 34°
2026-04-28 10:50 23.35902 116.69916 33310 ft 493 kts 34°
2026-04-28 10:50 23.38621 116.72183 33060 ft 494 kts 34°
2026-04-28 10:50 23.41351 116.74458 32806 ft 494 kts 34°
2026-04-28 10:50 23.44046 116.76798 32554 ft 497 kts 40°
2026-04-28 10:51 23.46495 116.79473 32310 ft 499 kts 44°
2026-04-28 10:51 23.48902 116.82202 32075 ft 500 kts 44°
2026-04-28 10:51 23.51307 116.84937 31838 ft 501 kts 44°
2026-04-28 10:51 23.53718 116.87680 31595 ft 501 kts 44°
2026-04-28 10:52 23.56134 116.90428 31358 ft 503 kts 44°
2026-04-28 10:52 23.58556 116.93178 31121 ft 503 kts 44°
2026-04-28 10:52 23.60984 116.95934 30887 ft 504 kts 44°
2026-04-28 10:52 23.63412 116.98691 30655 ft 504 kts 45°
2026-04-28 10:53 23.65842 117.01455 30427 ft 505 kts 45°
2026-04-28 10:53 23.68271 117.04221 30199 ft 506 kts 45°
2026-04-28 10:53 23.70703 117.06994 29973 ft 506 kts 45°
2026-04-28 10:53 23.73142 117.09779 29713 ft 507 kts 45°
2026-04-28 10:54 23.75586 117.12566 29452 ft 508 kts 45°
2026-04-28 10:54 23.78068 117.15308 29185 ft 508 kts 43°
2026-04-28 10:54 23.80643 117.17949 28919 ft 508 kts 41°
2026-04-28 10:54 23.83289 117.20506 28652 ft 508 kts 39°
2026-04-28 10:55 23.85973 117.23022 28394 ft 508 kts 39°
2026-04-28 10:55 23.88660 117.25530 28143 ft 508 kts 39°
2026-04-28 10:55 23.91337 117.28058 27884 ft 509 kts 40°
2026-04-28 10:55 23.93999 117.30621 27634 ft 509 kts 40°
2026-04-28 10:56 23.96639 117.33206 27392 ft 510 kts 41°
2026-04-28 10:56 23.99271 117.35809 27154 ft 510 kts 41°
2026-04-28 10:56 24.01904 117.38419 26738 ft 510 kts 41°
2026-04-28 10:56 24.04544 117.41029 25509 ft 515 kts 41°
2026-04-28 10:57 24.07223 117.43663 24268 ft 520 kts 40°
2026-04-28 10:57 24.09933 117.46318 23130 ft 523 kts 40°
2026-04-28 10:57 24.12616 117.48948 22405 ft 514 kts 40°
2026-04-28 10:57 24.15127 117.51684 21655 ft 506 kts 46°
2026-04-28 10:58 24.17492 117.54515 20864 ft 500 kts 46°
2026-04-28 10:58 24.19825 117.57314 20110 ft 495 kts 46°
2026-04-28 10:58 24.22129 117.60085 19379 ft 490 kts 46°
2026-04-28 10:58 24.24410 117.62827 18606 ft 481 kts 46°
2026-04-28 10:59 24.26642 117.65506 17270 ft 472 kts 46°
2026-04-28 10:59 24.28834 117.68139 16010 ft 464 kts 47°
2026-04-28 10:59 24.30988 117.70727 15316 ft 456 kts 47°
2026-04-28 10:59 24.33116 117.73282 14726 ft 450 kts 47°
2026-04-28 11:00 24.35198 117.75782 14094 ft 446 kts 47°
2026-04-28 11:00 24.37284 117.78290 13396 ft 443 kts 47°
2026-04-28 11:00 24.39349 117.80776 12748 ft 438 kts 47°
2026-04-28 11:00 24.41386 117.83232 12108 ft 432 kts 47°
2026-04-28 11:01 24.43394 117.85656 11484 ft 427 kts 47°
2026-04-28 11:01 24.45361 117.88035 11268 ft 411 kts 47°
2026-04-28 11:01 24.47243 117.90312 11148 ft 394 kts 47°
2026-04-28 11:01 24.49046 117.92493 11027 ft 378 kts 47°
2026-04-28 11:02 24.50780 117.94592 10907 ft 364 kts 47°
2026-04-28 11:02 24.52452 117.96612 10795 ft 351 kts 47°
2026-04-28 11:02 24.54066 117.98562 10671 ft 339 kts 47°
2026-04-28 11:02 24.55626 118.00451 10555 ft 328 kts 47°
2026-04-28 11:03 24.57144 118.02278 10379 ft 320 kts 47°
2026-04-28 11:03 24.58666 118.04034 10147 ft 316 kts 46°
2026-04-28 11:03 24.60199 118.05759 9957 ft 315 kts 45°
2026-04-28 11:03 24.61750 118.07492 9438 ft 319 kts 45°
2026-04-28 11:04 24.63284 118.09207 9011 ft 312 kts 45°
2026-04-28 11:04 24.64793 118.10898 8375 ft 308 kts 45°
2026-04-28 11:04 24.66265 118.12556 7759 ft 305 kts 46°
2026-04-28 11:04 24.67736 118.14222 7146 ft 302 kts 46°
2026-04-28 11:05 24.69204 118.15890 6546 ft 298 kts 46°
2026-04-28 11:05 24.70624 118.17506 6130 ft 286 kts 46°
2026-04-28 11:05 24.71952 118.19016 6048 ft 264 kts 46°
2026-04-28 11:05 24.73180 118.20427 5946 ft 255 kts 51°
2026-04-28 11:06 24.73983 118.22111 5848 ft 241 kts 81°
2026-04-28 11:06 24.73948 118.23853 5707 ft 227 kts 110°
2026-04-28 11:06 24.73191 118.25374 5157 ft 232 kts 137°
2026-04-28 11:06 24.71916 118.26505 4606 ft 240 kts 146°
2026-04-28 11:07 24.70580 118.27623 4175 ft 239 kts 144°
2026-04-28 11:07 24.69233 118.28627 3912 ft 226 kts 158°
2026-04-28 11:07 24.67758 118.29005 3603 ft 218 kts 180°
2026-04-28 11:07 24.66302 118.28683 3295 ft 211 kts 204°
2026-04-28 11:08 24.65121 118.27759 3072 ft 207 kts 226°
2026-04-28 11:08 24.64233 118.26540 2805 ft 202 kts 230°
2026-04-28 11:08 24.63383 118.25339 2548 ft 196 kts 231°
2026-04-28 11:08 24.62550 118.24167 2318 ft 193 kts 231°
2026-04-28 11:09 24.61744 118.23036 2087 ft 182 kts 230°
2026-04-28 11:09 24.60989 118.21977 1801 ft 170 kts 229°
2026-04-28 11:09 24.60281 118.20983 1566 ft 160 kts 230°
2026-04-28 11:09 24.59616 118.20051 1383 ft 148 kts 230°
2026-04-28 11:10 24.58997 118.19184 1183 ft 142 kts 229°
2026-04-28 11:10 24.58388 118.18332 998 ft 141 kts 230°
2026-04-28 11:10 24.57791 118.17495 833 ft 139 kts 231°
2026-04-28 11:10 24.57184 118.16646 666 ft 143 kts 231°
2026-04-28 11:11 24.56777 118.16076 560 ft 143 kts 230°
2026-04-28 11:11 24.56166 118.15218 366 ft 143 kts 231°
2026-04-28 11:11 24.55348 118.14080 112 ft 141 kts 230°
2026-04-28 11:11 24.54946 118.13525 55 ft 135 kts 230°
2026-04-28 11:12 24.54348 118.12680 53 ft 73 kts 233°
2026-04-28 11:12 24.54129 118.12373 51 ft 39 kts 231°
2026-04-28 11:12 24.53972 118.12199 56 ft 24 kts 204°
2026-04-28 11:12 24.53868 118.12153 54 ft 23 kts 201°
2026-04-28 11:13 24.53804 118.12172 56 ft 5 kts 93°
2026-04-28 11:13 24.53807 118.12211 60 ft 7 kts 71°
2026-04-28 11:13 24.53855 118.12277 51 ft 11 kts 52°
2026-04-28 11:13 24.53901 118.12343 53 ft 11 kts 52°
2026-04-28 11:14 24.53955 118.12418 54 ft 19 kts 52°
2026-04-28 11:14 24.54059 118.12565 52 ft 27 kts 52°
2026-04-28 11:14 24.54177 118.12727 51 ft 22 kts 52°
2026-04-28 11:14 24.54173 118.12805 52 ft 8 kts 146°
2026-04-28 11:15 24.54134 118.12845 47 ft 7 kts 139°
2026-04-28 11:15 24.54114 118.12894 53 ft 7 kts 76°
2026-04-28 11:15 24.54146 118.12944 55 ft 9 kts 51°
2026-04-28 11:15 24.54195 118.13013 52 ft 13 kts 52°
2026-04-28 11:16 24.54218 118.13088 54 ft 10 kts 114°
2026-04-28 11:16 24.54184 118.13118 54 ft 0 kts 142°
2026-04-28 11:16 24.54181 118.13121 51 ft 1 kts 143°
2026-04-28 11:16 24.54177 118.13125 52 ft 0 kts 143°
2026-04-28 11:17 24.54175 118.13126 53 ft 0 kts 143°